This is the latest recevied weather packets stored in our database for station/object W7BTL. If no packets are shown the sender has not sent any weather packets the latest 10 day(s).
| Time | Temp. | Humidity | Pressure | Rain* | Wind** | Luminosity | Snow |
|---|---|---|---|---|---|---|---|
| 1788192345 | 24.44° C | 71% | 1013.3 hPa | 0 mm | - | 206 W/m² | - |
| 1788192041 | 25° C | 71% | 1013.2 hPa | 0 mm | - | 159 W/m² | - |
| 1788191735 | 25° C | 69% | 1013.3 hPa | 0 mm | - | 156 W/m² | - |
| 1788191431 | 24.44° C | 71% | 1013.2 hPa | 0 mm | - | 204 W/m² | - |
| 1788191137 | 24.44° C | 73% | 1013.1 hPa | 0 mm | - | 214 W/m² | - |
| 1788190826 | 24.44° C | 71% | 1013.2 hPa | 0 mm | - | 161 W/m² | - |
| 1788190526 | 23.89° C | 74% | 1013.3 hPa | 0 mm | - | 175 W/m² | - |
| 1788190224 | 23.89° C | 74% | 1013.1 hPa | 0 mm | - | 165 W/m² | - |
| 1788189919 | 23.89° C | 73% | 1013 hPa | 0 mm | - | 149 W/m² | - |
| 1788189614 | 24.44° C | 73% | 1013.1 hPa | 0 mm | - | 133 W/m² | - |
| 1788189314 | 25° C | 72% | 1013.2 hPa | 0 mm | - | 147 W/m² | - |
| 1788189013 | 25° C | 69% | 1013 hPa | 0 mm | - | 156 W/m² | - |
| 1788188709 | 24.44° C | 71% | 1013.1 hPa | 0 mm | - | 191 W/m² | - |
| 1788188404 | 23.89° C | 73% | 1012.9 hPa | 0 mm | - | 175 W/m² | - |
| 1788188099 | 23.89° C | 73% | 1013 hPa | 0 mm | - | 140 W/m² | - |
| 1788187795 | 22.78° C | 75% | 1013 hPa | 0 mm | - | 123 W/m² | - |
| 1788187490 | 22.78° C | 76% | 1012.8 hPa | 0 mm | - | 111 W/m² | - |
| 1788187186 | 22.22° C | 77% | 1012.8 hPa | 0 mm | - | 97 W/m² | - |
| 1788186880 | 22.22° C | 77% | 1012.8 hPa | 0 mm | - | 88 W/m² | - |
| 1788186576 | 21.67° C | 79% | 1013 hPa | 0 mm | - | 80 W/m² | - |
| 1788186272 | 21.67° C | 80% | 1012.6 hPa | 0 mm | - | 71 W/m² | - |
| 1788185967 | 21.11° C | 81% | 1012.5 hPa | 0 mm | - | 58 W/m² | - |
| 1788185666 | 20.56° C | 83% | 1012.6 hPa | 0 mm | - | 53 W/m² | - |
| 1788185361 | 20.56° C | 83% | 1012.6 hPa | 0 mm | - | 47 W/m² | - |
| 1788185055 | 20° C | 84% | 1012.3 hPa | 0 mm | - | 39 W/m² | - |
* Rain latest hour (hover to see other rain measurements)
** Current wind speed in m/s (hover to see current wind gust speed)